Wind_Speed
3 3 7 8 6 6 8 11 13 8 5 6 13 16 13 11 7 8 4 2 4 7 9 12 14 22 23 23 30 24 14 9 7 4 2 3 8 12 14 13 15 19 19 20
4 7 5 3 4 7 10 13 9 4 1 8 14 20 18 9 10 8 5 2 4 7 8 10 13 16 24 24 30 27 20 13 8 3 4 5 10 11 13 16 18 19 22 24
4 4 3 4 6 10 12 7 11 11 16 14 11 9 5 5 7 7 5 2 2 5 9 11 13 15 19 26 24 30 32 25 15 5 10 9 11 11 12 11 13 14 16 20
3 2 3 5 4 8 10 6 9 13 11 4 4 7 4 8 7 9 9 6 2 1 4 7 10 14 15 19 23 21 24 31 30 17 10 7 8 7 8 6 2 4 8 11
4 4 4 5 5 5 6 14 12 9 8 8 6 4 4 3 4 10 12 9 6 2 1 4 7 10 13 12 15 20 20 21 23 26 27 25 23 20 17 17 15 15 14 12
3 1 2 4 7 5 13 13 11 4 4 3 4 3 6 2 2 1 11 10 8 4 1 1 4 6 9 11 13 14 17 17 17 17 21 21 20 16 17 20 17 15 14 15
6 1 0 3 10 5 11 13 3 3 2 4 3 5 6 4 2 3 8 12 11 8 5 3 1 1 4 7 9 12 15 16 15 14 16 17 19 19 17 14 17 18 15 13
5 2 3 5 3 6 7 6 4 5 6 10 7 4 1 3 1 1 5 11 12 10 9 8 6 4 2 2 6 8 10 12 13 15 17 16 15 16 15 15 13 14 14 11
5 2 2 1 2 3 3 3 2 5 7 4 5 7 5 3 5 7 11 14 16 14 12 10 9 6 4 3 2 5 6 8 11 13 14 14 15 15 16 15 14 15 14 15
4 7 2 1 2 1 3 4 3 3 5 7 7 10 7 8 8 11 14 19 17 16 15 13 12 10 7 4 3 3 4 6 7 9 10 12 13 13 14 14 13 14 15 14
4 2 2 4 3 4 3 3 4 3 4 4 6 6 3 4 5 8 13 16 18 19 18 16 13 12 10 7 4 2 2 3 4 6 8 10 11 12 12 12 13 13 14 14
3 5 6 13 2 1 4 6 7 3 3 7 8 9 3 2 3 5 8 10 15 18 18 17 15 13 11 9 6 3 1 1 2 4 6 8 9 10 11 11 11 11 12 13
1 3 6 2 3 2 3 4 8 9 8 14 9 7 3 2 5 10 12 13 12 16 18 18 16 14 12 10 8 6 2 3 2 3 5 7 9 11 13 15 15 14 13 13
3 5 8 10 13 13 19 19 11 11 9 14 18 24 22 20 15 18 19 11 11 15 19 18 16 14 11 10 10 7 3 4 4 4 5 6 7 8 9 11 14 17 18 17
4 6 11 18 18 19 22 24 19 20 22 17 23 21 23 20 20 18 10 11 10 13 16 17 15 13 11 9 8 8 6 5 4 4 5 7 8 10 11 11 12 12 13 15
4 4 3 8 16 15 19 22 17 19 20 22 25 26 21 10 10 11 12 13 10 11 15 16 15 13 11 9 7 9 6 5 5 5 7 8 9 10 11 12 13 13 14 14
4 3 2 6 4 6 15 16 11 8 10 10 13 15 10 14 16 13 12 11 9 9 13 16 16 14 12 13 7 4 5 4 5 7 10 11 12 13 14 15 15 16 17 17
6 5 2 5 6 5 5 5 5 9 13 15 14 16 15 8 9 15 10 9 6 3 9 13 14 14 13 9 6 6 6 6 7 9 11 12 13 14 14 15 16 17 17 18
15 8 4 4 9 16 12 2 1 2 8 12 6 9 11 14 14 6 6 4 2 2 7 10 10 11 9 7 9 9 7 6 6 9 12 13 14 15 16 17 18 18 19 19
4 11 4 4 6 8 5 3 2 1 8 9 10 12 14 5 6 4 4 2 5 7 9 11 12 10 8 9 7 7 5 6 8 11 14 15 15 17 18 19 20 20 20 21
4 4 12 11 7 10 4 8 4 3 3 15 15 14 7 3 3 2 1 4 6 9 10 10 9 8 6 5 5 4 5 7 12 14 16 16 17 18 19 20 20 20 20 21
8 6 5 5 5 9 6 5 5 5 16 12 11 10 11 9 8 4 4 5 7 8 7 6 5 4 3 3 4 5 7 12 15 16 17 17 18 19 20 20 20 18 19 21
5 10 6 7 5 4 3 7 7 10 12 9 13 12 10 6 4 5 5 5 6 6 5 3 2 2 3 5 7 8 11 14 16 17 18 18 19 20 20 19 19 21 19 19
3 8 4 4 4 9 6 4 10 12 13 14 10 7 4 2 5 5 6 6 5 3 1 1 1 3 4 8 10 12 14 16 17 19 19 20 21 18 17 17 16 16 16 17
5 4 4 13 17 4 5 12 15 13 10 7 6 5 3 4 5 7 6 4 2 1 1 3 6 7 8 11 12 14 15 17 18 18 19 18 16 18 17 14 15 16 17 16
7 3 4 9 3 4 4 11 8 6 5 5 5 6 5 5 6 5 5 3 1 2 5 7 8 9 11 13 14 15 15 16 16 17 16 17 17 16 15 17 20 17 17 18
Wind_Direction
11 28 25 9 8 337 318 312 310 319 38 286 267 278 282 189 198 235 243 304 349 352 360 356 357 10 16 24 22 12 3 351 334 288 241 210 247 232 236 239 244 247 249 247
211 55 26 344 316 311 300 308 334 338 346 292 292 295 287 204 208 236 235 264 349 356 356 354 359 12 22 26 39 32 28 13 4 257 222 229 253 249 255 260 265 265 264 258
21 51 350 325 326 334 329 323 334 311 315 280 304 279 117 137 192 209 220 233 344 5 353 356 3 18 31 33 36 43 44 40 32 111 180 212 196 240 251 260 268 272 275 268
24 34 342 335 340 340 318 350 317 307 319 332 17 312 148 160 213 216 214 211 206 340 357 5 13 25 31 39 42 42 44 43 46 46 67 152 173 142 96 96 191 214 261 252
46 347 342 325 339 323 299 327 308 308 290 306 153 266 93 141 229 219 212 201 194 189 64 8 13 26 33 36 39 43 44 45 42 51 54 52 65 62 68 86 104 94 100 113
11 345 297 332 309 270 300 300 280 269 282 257 105 347 288 49 360 345 191 192 193 189 178 21 17 22 31 38 45 51 51 52 52 57 55 50 42 33 42 42 50 80 67 74
314 180 102 330 311 195 332 337 323 300 288 313 145 286 289 71 15 320 197 194 195 191 196 214 187 43 38 43 52 56 61 60 56 60 64 63 51 42 44 36 33 23 29 43
335 308 356 12 355 319 333 340 2 315 330 313 223 253 47 92 113 246 188 194 199 199 203 213 224 201 169 87 70 66 62 60 60 54 51 49 56 58 53 38 37 32 26 18
335 292 131 26 327 323 15 332 2 282 269 272 266 263 149 170 207 205 199 203 211 209 203 208 217 222 214 176 118 94 75 67 58 56 58 53 47 44 43 44 34 34 31 28
12 294 98 46 263 173 299 347 264 200 303 311 274 299 261 215 222 212 219 220 221 216 211 206 213 217 216 213 186 110 82 67 64 59 52 49 47 40 35 33 30 22 19 16
322 265 296 257 202 332 239 232 230 284 248 286 301 281 17 263 247 231 233 231 226 220 215 210 204 210 211 209 200 178 107 72 47 43 43 36 31 33 31 25 20 17 11 7
50 305 285 286 30 194 252 264 267 269 232 237 273 275 209 271 262 252 256 252 237 225 215 208 202 201 205 207 203 195 171 25 38 38 31 23 19 16 14 16 18 13 5 358
95 208 298 180 150 162 236 232 262 285 289 256 263 270 99 160 221 242 254 267 254 228 213 207 202 200 200 201 205 209 177 284 326 359 13 13 13 10 4 1 359 356 356 355
193 238 234 266 294 314 290 274 245 248 267 259 246 269 284 297 312 316 317 293 258 229 214 210 208 204 198 199 202 209 213 266 302 326 337 337 348 346 347 346 344 345 346 345
234 257 247 261 277 283 280 279 272 255 251 258 274 282 287 304 316 326 330 325 288 231 218 214 211 206 200 200 201 225 230 246 281 314 330 337 340 339 338 337 335 333 332 333
194 270 300 276 274 274 282 271 267 262 264 260 264 275 288 336 340 325 332 329 302 241 219 211 208 205 197 191 191 218 245 269 291 311 324 328 331 333 332 332 331 329 327 325
205 236 278 276 334 324 281 277 237 225 230 247 262 267 338 323 332 324 318 312 299 268 225 207 199 193 190 208 210 191 241 284 312 325 327 327 330 332 333 332 331 330 329 327
221 204 208 279 295 230 313 275 296 282 269 275 262 281 307 331 330 313 310 310 305 252 211 193 190 189 203 194 175 215 244 268 295 314 314 319 324 326 326 325 323 322 321 320
229 199 245 253 252 284 289 90 40 275 289 295 323 4 349 320 319 264 326 334 343 162 177 176 174 173 170 166 215 240 263 288 310 306 306 315 322 323 320 316 315 315 313 312
207 225 209 208 253 272 20 145 132 149 279 44 6 322 299 330 293 337 5 26 103 122 139 149 152 165 204 231 248 263 289 326 310 303 312 317 316 314 313 314 314 313 311 309
171 198 224 235 256 274 13 138 173 275 298 318 306 317 324 270 298 292 9 107 131 137 144 161 188 212 230 249 267 302 330 311 300 307 311 313 314 312 313 312 311 309 308 307
208 200 205 219 235 272 109 127 253 353 318 331 334 317 307 273 277 240 190 163 157 158 167 179 207 228 254 280 322 336 313 296 305 310 313 315 314 314 315 313 313 310 308 309
249 215 261 215 253 1 218 328 355 323 302 308 321 320 309 268 231 198 175 165 154 172 188 202 225 265 305 329 333 310 299 304 308 312 314 313 312 313 312 312 308 308 309 309
242 261 252 341 227 298 32 37 354 341 333 328 328 329 320 209 168 173 161 170 177 182 197 256 328 338 343 312 311 309 307 311 315 316 316 316 316 317 314 313 312 309 308 306
261 158 247 267 279 29 66 358 341 338 342 348 0 28 69 123 129 148 157 164 161 148 325 328 340 333 304 308 316 313 315 316 317 318 319 320 319 317 318 317 310 307 306 305
222 276 260 291 353 291 346 335 340 351 13 29 54 65 99 126 132 152 146 138 184 314 330 333 313 310 312 317 319 318 318 319 320 320 321 317 318 320 315 313 314 310 303 301
Height
1535 1532 1537 1538 1538 1538 1536 1531 1525 1517 1524 1530 1520 1513 1511 1518 1526 1529 1529 1530 1531 1531 1528 1525 1523 1518 1512 1506 1498 1489 1485 1483 1482 1483 1484 1486 1488 1488 1488 1488 1489 1490 1491 1491
1534 1539 1542 1541 1540 1538 1532 1526 1520 1520 1526 1527 1515 1509 1506 1510 1521 1525 1529 1529 1529 1530 1529 1527 1523 1519 1512 1505 1498 1492 1487 1484 1482 1482 1484 1486 1485 1484 1486 1486 1486 1486 1486 1487
1535 1541 1542 1541 1537 1536 1528 1529 1529 1531 1524 1514 1515 1495 1505 1513 1519 1525 1528 1528 1528 1526 1527 1524 1522 1518 1514 1507 1501 1497 1493 1487 1483 1481 1481 1483 1483 1484 1484 1483 1482 1482 1482 1482
1539 1543 1542 1539 1537 1539 1532 1533 1534 1532 1529 1519 1519 1509 1499 1512 1518 1522 1525 1526 1526 1525 1524 1523 1521 1518 1514 1511 1507 1503 1498 1494 1489 1486 1483 1482 1482 1482 1482 1482 1483 1481 1482 1480
1541 1541 1541 1537 1540 1541 1534 1532 1532 1532 1529 1524 1518 1520 1497 1508 1510 1513 1518 1523 1524 1524 1522 1522 1521 1519 1516 1512 1509 1506 1502 1498 1497 1494 1491 1489 1485 1487 1485 1484 1483 1481 1481 1479
1544 1546 1545 1542 1541 1541 1538 1528 1519 1527 1527 1524 1514 1519 1499 1497 1504 1505 1513 1520 1523 1524 1523 1521 1520 1519 1517 1514 1511 1508 1505 1502 1501 1499 1496 1495 1493 1490 1489 1488 1486 1483 1483 1482
1536 1540 1544 1546 1538 1538 1533 1527 1522 1522 1520 1513 1519 1522 1499 1503 1509 1511 1510 1516 1519 1519 1520 1519 1517 1518 1517 1516 1513 1509 1507 1505 1504 1502 1500 1498 1497 1496 1495 1492 1490 1490 1487 1486
1547 1545 1542 1545 1545 1545 1539 1538 1537 1539 1523 1517 1511 1514 1497 1510 1512 1512 1511 1515 1517 1516 1515 1515 1516 1515 1514 1514 1513 1511 1509 1507 1506 1504 1501 1500 1498 1496 1495 1494 1492 1490 1491 1489
1550 1540 1544 1546 1546 1546 1537 1535 1543 1540 1525 1535 1507 1498 1510 1508 1508 1509 1509 1510 1511 1512 1512 1512 1512 1514 1514 1513 1513 1511 1511 1508 1507 1506 1504 1503 1501 1499 1498 1496 1494 1494 1492 1489
1554 1554 1542 1544 1548 1547 1544 1543 1539 1534 1532 1526 1497 1494 1492 1494 1497 1503 1505 1505 1507 1509 1510 1509 1510 1511 1511 1513 1512 1511 1510 1510 1508 1507 1506 1505 1503 1501 1500 1498 1496 1494 1492 1490
1559 1558 1542 1541 1541 1541 1542 1537 1539 1537 1533 1527 1512 1491 1484 1489 1493 1496 1500 1501 1502 1503 1506 1508 1508 1508 1509 1510 1511 1511 1510 1508 1509 1508 1507 1506 1504 1503 1501 1499 1497 1495 1494 1493
1559 1556 1552 1536 1536 1543 1543 1538 1535 1535 1528 1527 1525 1510 1489 1491 1495 1497 1497 1498 1499 1500 1502 1504 1505 1506 1506 1508 1509 1510 1510 1509 1508 1507 1506 1505 1504 1503 1501 1500 1499 1497 1495 1492
1558 1554 1551 1528 1541 1543 1540 1537 1539 1535 1536 1532 1523 1496 1489 1494 1496 1495 1495 1494 1495 1497 1499 1501 1502 1504 1505 1505 1506 1508 1508 1509 1508 1507 1505 1504 1503 1501 1500 1497 1496 1495 1494 1493
1560 1554 1548 1541 1531 1535 1534 1530 1531 1534 1533 1519 1506 1491 1485 1483 1485 1487 1488 1490 1491 1493 1496 1499 1502 1503 1505 1504 1504 1506 1506 1508 1508 1507 1506 1505 1503 1502 1501 1499 1496 1493 1491 1490
1557 1553 1547 1541 1539 1536 1531 1524 1527 1526 1518 1521 1495 1498 1485 1486 1487 1488 1489 1489 1488 1491 1496 1499 1501 1503 1504 1504 1503 1504 1506 1507 1507 1506 1505 1503 1502 1500 1498 1497 1496 1495 1493 1490
1557 1550 1549 1545 1534 1531 1527 1514 1516 1517 1512 1511 1500 1494 1491 1491 1491 1490 1490 1490 1489 1489 1492 1495 1498 1501 1502 1503 1503 1503 1504 1505 1505 1504 1503 1502 1501 1499 1498 1496 1494 1493 1491 1489
1554 1554 1553 1538 1533 1536 1523 1500 1501 1502 1501 1500 1499 1486 1487 1488 1491 1491 1489 1489 1488 1488 1489 1491 1493 1496 1499 1499 1499 1502 1502 1502 1502 1502 1501 1500 1499 1497 1495 1494 1492 1490 1488 1486
1546 1551 1552 1542 1534 1529 1495 1495 1499 1496 1495 1493 1491 1490 1492 1491 1490 1493 1492 1488 1485 1484 1488 1490 1493 1493 1494 1494 1497 1499 1499 1499 1499 1499 1499 1498 1496 1495 1493 1492 1490 1487 1485 1483
1540 1544 1545 1538 1518 1497 1488 1495 1497 1499 1492 1488 1488 1491 1495 1497 1490 1489 1489 1487 1487 1486 1488 1490 1492 1492 1492 1495 1495 1496 1497 1497 1497 1497 1496 1495 1493 1492 1491 1489 1487 1485 1482 1480
1541 1539 1542 1532 1527 1502 1483 1497 1500 1501 1487 1496 1497 1495 1492 1492 1489 1485 1487 1487 1487 1487 1488 1489 1489 1490 1492 1492 1494 1495 1495 1495 1495 1494 1493 1491 1490 1489 1487 1485 1483 1480 1478 1475
1537 1539 1532 1527 1519 1497 1490 1496 1499 1496 1492 1495 1496 1494 1493 1493 1493 1491 1489 1488 1487 1486 1487 1488 1489 1490 1490 1491 1492 1493 1493 1494 1493 1491 1490 1488 1486 1485 1482 1480 1478 1476 1473 1470
1522 1529 1524 1520 1515 1502 1496 1500 1498 1493 1491 1494 1495 1493 1491 1489 1487 1488 1489 1488 1488 1487 1489 1489 1490 1490 1491 1491 1491 1491 1492 1491 1490 1488 1486 1485 1483 1480 1477 1475 1472 1471 1468 1465
1520 1509 1500 1504 1490 1491 1497 1498 1497 1497 1497 1493 1489 1488 1487 1486 1485 1486 1489 1489 1489 1488 1489 1490 1490 1490 1490 1490 1490 1490 1489 1487 1486 1484 1482 1480 1478 1476 1473 1470 1468 1465 1463 1461
1508 1509 1507 1505 1491 1493 1494 1496 1496 1495 1493 1490 1488 1486 1486 1486 1485 1486 1489 1490 1490 1490 1490 1491 1490 1490 1490 1489 1489 1488 1486 1484 1482 1480 1477 1475 1473 1470 1468 1465 1463 1462 1460 1457
1510 1508 1504 1495 1491 1495 1495 1495 1495 1493 1491 1490 1488 1487 1486 1486 1486 1488 1490 1491 1491 1491 1490 1490 1490 1490 1489 1488 1486 1484 1482 1480 1477 1475 1473 1471 1469 1466 1464 1462 1460 1458 1456 1455
1505 1502 1498 1490 1501 1500 1499 1496 1495 1494 1492 1491 1489 1488 1488 1487 1487 1489 1490 1491 1491 1490 1490 1489 1489 1488 1486 1485 1483 1481 1479 1476 1474 1472 1470 1468 1465 1463 1461 1458 1455 1454 1452 1451